www.pogodaiklimat.ru

Погода и климат >> Архив погоды >> Россия >> Якутия >> Килиер


ПОГОДА в Килиере

  • Прогноз погоды в Килиере
  • Монитор погоды в Килиере

АРХИВ ПОГОДЫ в Килиере

Время (UTC), дата Ветер
(напр.,м/с)
 
Видим.   Явления Облачность Т
(С)
Тd
(С)
f
(%)
Тe
(С)
Тes
(С)
Комфортность P
(гПа)
Po
(гПа)
Тmin
(С)
Tmax
(С)
R
(мм)
R24
(мм)
S
(см)
18 16.09 штиль 0 50 км 9/0
[Ac trans]
-5.1 -5.1 100 -6 -6 1015.3 983.6
21 16.09 З 1 50 км 10/9 1000 м
[Sc As op]
-0.2 -0.2 100 -3 -3 1015.8 984.7
00 17.09 З 3 50 км 10/9 600 м
[Frnb As op]
+1.5 +1.2 98 -3 -3 1017.1 986.1 -5.2
03 17.09 СЗ 5
{10}
50 км 10/6 1000 м
[Cu Sc Ci sp]
+4.6 -1.1 66 0 +1 1017.8 987.1
06 17.09 З 5
{10}
50 км 8/8 1000 м
[Cu Sc]
+7.3 -1.4 54 +4 +4 1017.5 987.1
09 17.09 СЗ 4 50 км 8/8 1000 м
[Sc]
+6.3 -1.5 57 +3 +3 1018.2 987.7
12 17.09 штиль 0 50 км 6/6 1000 м
[Sc]
-0.8 -5.4 71 -2 -2 1019.6 988.3 +7.8
15 17.09 штиль 0 50 км 9/9 1000 м
[Sc]
-1.8 -3.6 87 -3 -3 1019.8 988.3
18 17.09 штиль 0 50 км 10/10 1000 м
[Sc]
-1.8 -2.6 94 -3 -3 1019.8 988.3
21 17.09 штиль 0 50 км 10/9 600 м
[Cb cap Ci fib]
-1.6 -1.8 99 -3 -3 1019.8 988.3
00 18.09 З 2 50 км 10/0
[As op]
-0.2 -0.2 100 -4 -4 1020.3 989.0 -1.8
03 18.09 З 2 50 км 6/6 1000 м
[Cu Sc]
+2.7 +0.9 88 -1 +1 1018.9 988.0
06 18.09 З 2 50 км 6/4 1000 м
[Cu Sc Ci fib]
+5.8 +1.0 71 +4 +6 1017.5 987.0
09 18.09 Ю 3 50 км 10/1 1000 м
[Sc As trans Cs]
+6.2 0.0 64 +3 +3 1015.5 985.0
12 18.09 штиль 0 50 км 10/0
[Cs]
+2.4 +0.3 86 +1 +1 1013.9 983.0 +6.4
15 18.09 Ю 4 50 км 10/0
[As op]
+3.6 -0.1 77 -1 -1 1010.6 980.0
18 18.09 ЮВ 4 20 км слаб. снег 10/0
[As op]
+1.0 +0.5 96 -4 -4 1006.7 976.0
21 18.09 В 2 4000 м снег 10/0
[As op]
+0.3 +0.3 100 -4 -4 1002.9 972.2
00 19.09 З 2 20 км слаб. снег 10/0
[As op]
+0.7 +0.7 100 -3 -3 1002.3 971.7 +0.3 6 1
03 19.09 С 5
{10}
10 км слаб. ливневой снег 10/10 600 м
[Cb cap]
+1.0 +1.0 100 -5 -5 1004.7 974.0
06 19.09 С 5
{10}
4000 м слаб. ливневой снег 10/10 600 м
[Cb cap]
+0.4 +0.4 100 -6 -6 1009.1 978.2
09 19.09 СЗ 4 50 км {ливн. осадки} 10/9 600 м
[Cb cap Ci fib]
+1.5 +1.5 100 -4 -4 1013.1 982.3
12 19.09 СЗ 3 50 км {ливн. осадки} 10/10 1000 м
[Sc]
+0.7 +0.7 100 -4 -4 1016.7 985.6 +1.5 3
15 19.09 СЗ 2 50 км 9/0
[Ac trans]
+0.5 +0.5 100 -3 -3 1018.3 987.2
18 19.09 штиль 0 50 км ясно -3.0 -3.1 99 -4 -4 1020.4 988.7
21 19.09 штиль 0 50 км ясно -6.0 -6.1 99 -7 -7 1022.0 990.0
00 20.09 штиль 0 50 км 8/0
[Ci sp]
-2.2 -2.5 98 -4 -2 1021.8 990.2 -6.6
03 20.09 З 2 50 км 10/9 1000 м
[Sc Ci sp]
+3.8 +1.2 83 +1 +1 1019.9 989.0
06 20.09 Ю 3 50 км 10/5 1000 м
[Cu Sc Ci fib]
+6.3 -0.8 60 +4 +5 1017.5 987.0
09 20.09 ЮЗ 2 50 км 10/0
[Ac trans Cs]
+6.3 +0.4 66 +4 +4 1015.5 985.0
12 20.09 штиль 0 50 км 10/0
[Ac As]
+4.3 +0.9 79 +3 +3 1013.7 983.0 +6.8
15 20.09 Ю 2 50 км 10/0
[Ac As]
+4.0 +3.0 93 +1 +1 1011.3 980.7
18 20.09 Ю 1 20 км слаб. дождь 10/4 1000 м
[Sc Ac As]
+3.9 +3.9 100 +2 +2 1010.3 979.7
21 20.09 Ю 1 50 км {дождь} 10/0
[As op]
+4.2 +4.2 100 +3 +3 1011.2 980.6
00 21.09 Ю 1 50 км {дождь} 10/10 1000 м
[Sc]
+6.4 +6.2 99 +5 +5 1011.9 981.5 +3.8 0.7
03 21.09 З 2 50 км 10/10 1000 м
[Sc]
+8.2 +7.8 97 +6 +6 1011.1 981.0
06 21.09 Ю 2 50 км 10/9 1000 м
[Sc Ci sp]
+12.4 +10.7 89 +11 +12 1008.6 979.0
09 21.09 Ю 3 50 км 10/0
[Ac trans Cs]
+13.6 +11.9 89 +12 +12 1006.4 977.0
12 21.09 Ю 4 50 км 10/9 600 м
[Cb cap Cs]
+12.6 +11.5 93 +11 +11 1005.5 976.1 +13.7
15 21.09 Ю 2 50 км 8/8 600 м
[Cb cap]
+10.3 +9.9 97 +9 +9 1005.8 976.1
18 21.09 З 3 50 км 6/6 600 м
[Cb cap]
+12.6 +11.5 93 +11 +11 1005.5 976.1
21 21.09 З 3 50 км 10/10 1000 м
[Sc]
+11.1 +9.7 91 +9 +9 1007.9 978.2
00 22.09 З 4 50 км 3/1 1000 м
[Sc Ci fib]
+10.2 +6.1 76 +8 +8 1010.7 980.8 +10.2
03 22.09 СЗ 6-10
{12}
50 км 6/4 1000 м
[Cu Sc Ci fib]
+13.8 +2.5 46 +12 +13 1010.9 981.4
06 22.09 З 6-10
{12}
50 км 8/8 600 м
[Cb calv]
+13.8 +0.3 40 +12 +12 1011.5 982.0
09 22.09 З 6-10
{12}
50 км 8/8 600 м
[Cb cap]
+12.4 +1.7 48 +10 +10 1013.4 983.6
12 22.09 З 2
{10}
50 км 4/4 1000 м
[Sc]
+7.4 +0.9 63 +6 +6 1016.2 985.8 +14.2
15 22.09 штиль 0 50 км 6/6 1000 м
[Sc]
+5.9 +1.7 74 +5 +5 1017.3 986.8
18 22.09 штиль 0 50 км 10/6 1000 м
[Sc Ac As]
+3.7 +1.9 88 +3 +3 1018.2 987.4
21 22.09 З 3 50 км 10/10 1000 м
[Sc]
+5.6 +0.5 70 +3 +3 1018.3 987.8
00 23.09 З 4 50 км 10/4 1000 м
[Sc Ac As]
+5.6 +1.0 72 +2 +2 1019.3 988.7 +3.7
03 23.09 СЗ 5
{10}
50 км 10/8 1000 м
[Cu Sc Ci fib]
+7.6 -0.7 56 +4 +5 1020.7 990.3
06 23.09 СЗ 6-10
{12}
50 км 10/9 600 м
[Cb cap Ci sp]
+8.4 -2.1 48 +5 +5 1020.8 990.4
09 23.09 С 4
{10}
50 км 6/6 1000 м
[Sc]
+6.8 -0.5 60 +4 +4 1022.4 991.8
12 23.09 штиль 0 50 км 8/8 1000 м
[Sc]
+1.9 -1.2 80 +1 +1 1024.6 993.4 +8.8
15 23.09 штиль 0 50 км ясно -1.9 -3.1 91 -3 -3 1025.0 993.4

 

Местоположение метеостанции Килиер (Якутия, Россия): широта 60.95 долгота 119.30 высота над уровнем моря 249 м.

В архиве по умолчанию представлена погода в Килиере за последнюю неделю. Архивные данные за месяц целиком и за предыдущие месяцы, начиная с января 2011 года, Вы можете получить, выбрав интересующий диапазон дат из раскрывающегося списка и нажав кнопку "Ввод!".


*Определитесь, кто Вы:
робот инопланетянин человек

Внимание! Время в таблицах - всемирное. Для получения местного времени необходимо прибавить поправку, которая равна 9 ч.

Смотрите также архив погоды в соседних городах и на ближайших метеорологических станциях:

Погода в Олекминске (Якутия, Россия) (86 км)
Погода в Маче (Якутия, Россия) (147 км)
Погода в Сунтаре (Якутия, Россия) (163 км)
Погода в Тяне (Якутия, Россия) (219 км)
Погода в Крестяхе (Якутия, Россия) (224 км)
Погода в Ленске (Якутия, Россия) (245 км)
Погода в Джикимде (Якутия, Россия) (253 км)
Погода в Перевозе (Иркутская область, Россия) (255 км)
Погода в Дорожном (Якутия, Россия) (262 км)
Погода в Нюрбе (Якутия, Россия) (264 км)

Пояснения к столбцам:

Ветер - указаны скорость ветра в м/с - средняя за 10 мин, порывы в срок и между сроками (в фигурных скобках) и направление, откуда дует ветер: С - северный, СВ - северо-восточный, В - восточный, ЮВ - юго-восточный, Ю - южный, ЮЗ - юго-западный, З - западный, СЗ - северо-западный.
Видимость - горизонтальная дальность видимости в метрах или километрах. При видимости от 1 до 10 км при отсутствии осадков обычно наблюдается дымка, при ухудшении видимости до 1 км и менее - туман. В сухую погоду видимость может ухудшаться дымом, пылью или мглою.
Явления - указаны атмосферные явления, наблюдавшиеся в срок или в последний час перед сроком; фигурными скобками обозначены явления, наблюдавшиеся между сроками (за 1-3 часа до срока); квадратными скобками обозначены град или гололедные отложения с указанием их диаметра в мм.
Облачность - указаны через наклонную черту общая и нижняя облачность в баллах и высота нижней границы облаков в метрах; квадратными скобками обозначены формы облаков: Ci - перистые, Cs - перисто-слоистые, Cc - перисто-кучевые, Ac - высококучевые, As - высокослоистые, Sc - слоисто-кучевые, Ns - слоисто-дождевые, Cu - кучевые, Cb - кучево-дождевые. Подробнее классификацию облаков см. в Атласе облаков (PDF).
T - Температура воздуха - температура, измеренная на высоте 2 м над землей.
Td - Температура точки росы - температура, при понижении до которой содержащийся в воздухе водяной пар достигнет насыщения.
f - Относительная влажность воздуха - влажноcть воздуха, измеренная на высоте 2 м над землей.
Te - Эффективная температура - температура, которую ощущает одетый по сезону человек в тени. Характеристика душности погоды. При расчете учитывается влияние влажности воздуха и скорости ветра на теплоощущения человека.
Tes - Эффективная температура на солнце - температура, которую ощущает человек, с поправкой на солнечный нагрев. Характеристика знойности погоды. Зависит от высоты солнца над горизонтом, облачности и скорости ветра. Ночью, в пасмурную погоду, а также при ветре 12 м/с и более поправка равна нулю.
P - Атмосферное давление - приведенное к уровню моря атмосферное давление.
Po - Атмосферное давление - измеренное на уровне метеостанции атмосферное давление.
Tmin - Минимальная температура - минимум температуры воздуха на высоте 2 м над землей.
Tmax - Максимальная температура - максимум температуры воздуха на высоте 2 м над землей.
R - Количество осадков - Количество выпавших осадков за период времени, мм. При наведении курсора мыши на число - период времени, за который выпало указанное количество осадков.
R24 - Количество осадков - Количество выпавших осадков за 24 часа, мм.
S - Снежный покров - Высота снежного покрова, см. При наведении курсора мыши на число - состояние снежного покрова и степень покрытия местности в баллах.